Location: Fort Wayne
(41.1310°N, 85.1290°W)
Time: 03:50:25
(UTC-04:00)

ISS - Visible Passes

Search period start: 31 May 2016 00:00
Search period end: 10 June 2016 00:00
Orbit: 402 x 404 km, 51.6° (Epoch: 30 May)

Date Brightness Start Highest point End Pass type
(mag) Time Alt. Az. Time Alt. Az. Time Alt. Az.
31 May 0.0 00:25:46 10° NNW 00:27:24 13° N 00:29:03 10° NNE visible
31 May -0.6 02:02:17 10° NNW 02:04:48 20° NNE 02:05:58 17° NE visible
31 May -0.5 03:38:18 10° NW 03:38:26 11° NW 03:38:26 11° NW visible
31 May -1.5 21:54:07 10° W 21:57:08 34° NNW 22:00:11 10° NE visible
31 May -0.1 23:32:28 10° NW 23:34:19 14° N 23:36:09 10° NNE visible
01 Jun -0.3 01:09:39 10° NNW 01:11:46 16° NNE 01:13:33 11° NE visible
01 Jun -0.5 02:45:35 10° NW 02:46:06 14° NW 02:46:06 14° NW visible
01 Jun -0.3 22:39:03 10° WNW 22:41:15 17° NNW 22:43:28 10° NNE visible
02 Jun -0.2 00:16:55 10° NNW 00:18:41 14° N 00:20:28 10° NE visible
02 Jun -0.8 01:52:56 10° NW 01:54:26 21° NNW 01:54:26 21° NNW visible
02 Jun -0.6 21:45:38 10° WNW 21:48:14 21° NNW 21:50:49 10° NNE visible
02 Jun -0.2 23:23:57 10° NNW 23:25:35 13° N 23:27:14 10° NNE visible
03 Jun -0.9 01:00:20 10° NNW 01:02:56 22° NNE 01:03:00 22° NNE visible
03 Jun -0.3 22:30:43 10° NW 22:32:28 14° N 22:34:15 10° NNE visible
04 Jun -0.5 00:07:42 10° NNW 00:09:55 17° NNE 00:11:41 12° NE visible
04 Jun -0.5 01:43:38 10° NW 01:44:16 15° NW 01:44:16 15° NW visible
04 Jun -0.4 23:14:58 10° NNW 23:16:50 14° N 23:18:42 10° NE visible
05 Jun -1.3 00:50:57 10° NW 00:53:01 28° N 00:53:01 28° N visible
05 Jun -0.3 22:22:04 10° NNW 22:23:43 13° N 22:25:23 10° NNE visible
05 Jun -1.3 23:58:19 10° NW 00:01:03 24° NNE 00:01:50 22° NE visible
06 Jun -0.8 23:05:41 10° NNW 23:08:02 18° NNE 23:10:22 10° ENE visible
07 Jun -1.3 00:41:38 10° NW 00:43:17 27° NW 00:43:17 27° NW visible
07 Jun -0.5 22:12:58 10° NNW 22:14:56 15° N 22:16:54 10° NE visible
07 Jun -2.3 23:48:55 10° NW 23:52:03 41° NNE 23:52:11 40° NE visible
08 Jun -1.5 22:56:15 10° NW 22:59:06 26° NNE 23:01:07 15° ENE visible
09 Jun -1.0 00:32:31 10° WNW 00:33:43 20° WNW 00:33:43 20° WNW visible
09 Jun -1.0 22:03:37 10° NNW 22:06:05 19° NNE 22:08:31 10° ENE visible
09 Jun -3.3 23:39:37 10° NW 23:42:40 77° NW 23:42:40 77° NW visible
